Location: Campillo
(40.8621°N, 4.2488°W)
Time: 14:01:04
(UTC+00:00)

USA 308 - Pass Details

Date: 24 September 2021
Orbit: 566 x 573 km, 54.0° (Epoch: 23 September)

Event Time Altitude Azimuth Distance (km) Brightness Sun altitude
Rises 21:01:00 0° 314° (NW) 2,773 7.5 -31.7°
Reaches altitude 10° 21:03:30 10° 326° (NW) 1,875 6.2 -32.1°
Enters shadow 21:04:55 18° 339° (NNW) 1,433 5.4 -32.3°
